LINCS2 (48903 NORAD) Tracking and Keplerian Element Data

This shows tracking and keplerian element data for the satellite.

Feedback or suggestion? Click here.




ElementValue
Catalog48903
NameLINCS2
Epoch Orbit1679
Epoch Day287.91331308
Epoch Year2021
RAAN55.0056
Inclination97.5195
Eccentricity0.0009525
Argument of Perigee220.8558
Mean Anonmoly139.196
Mean Motion15.1253623
Decay Rate2.503E-05
L11 48903U 21059AA 21287.91331308 .00002503 00000-0 14724-3 0 9990
L22 48903 97.5195 55.0056 0009525 220.8558 139.1960 15.12536230 16794

Live tracking and technical data element details for LINCS2 (NORAD 48903). LINCS2 can be tracked NOW for your location showing map with azimuth and elevation plus other details from your city location.

Track the satellite on the map from your city or location and see movement details for azimuth, elevation, latitude, longitude, range, height, and movement on the map or in text.







IsCatalogInMostPopularTable: catalog: 48903, numindb: 20
Update: records affected: 1



GetName: 48903 LINCS2

Hit Count: updated at: Tue, 19 Oct 2021 08:59:41 GMT